Temp
13 12 12 12 11 11 11 11 11 11 10 10 10 9 9 9 9 9 10 11 12 13 13 13 13 12 11 11 11 11 11 11 11 10 10 11 11 11 12 12 12 12 11 10 10 9 9 9 9 9 9 9 10 11 11 12 12 12 12 12 12 12 12 12 12 12 12 11 11
12 12 11 11 11 11 11 11 11 10 10 10 10 9 9 8 8 8 9 10 11 11 12 12 12 11 11 11 10 10 10 10 10 9 9 9 10 11 11 11 11 11 10 10 10 9 9 9 9 9 9 9 10 11 11 11 12 12 12 12 12 12 12 12 12 11 11 11 11
12 11 11 11 11 10 10 10 10 10 10 10 10 10 9 8 8 8 8 9 9 10 10 11 11 11 11 11 10 10 9 9 9 9 8 8 9 10 10 10 10 10 10 9 9 9 9 9 9 9 9 10 10 11 11 11 11 11 12 12 12 12 12 11 11 11 11 11 11
11 11 11 10 10 10 10 10 10 10 10 10 10 10 9 8 8 7 7 7 8 9 10 10 11 11 11 11 10 10 10 9 9 8 8 8 8 9 9 9 9 10 9 9 9 9 9 9 9 9 9 10 10 11 11 11 11 11 12 12 12 11 11 11 11 11 11 11 10
10 10 10 10 10 10 10 10 10 10 10 10 10 10 9 9 8 7 7 7 7 8 9 10 10 10 10 10 10 10 10 9 8 8 7 7 7 8 8 8 9 9 9 9 8 8 8 8 8 8 9 10 10 11 11 11 11 11 11 11 11 11 11 11 11 10 10 10 10
10 10 10 10 10 10 10 10 10 10 10 10 10 10 10 10 9 8 7 6 7 7 8 9 10 9 9 10 10 10 9 9 8 7 7 7 6 7 7 8 9 9 9 8 8 8 8 8 8 8 9 10 11 11 11 11 11 11 11 11 11 11 11 10 10 10 10 10 10
10 10 10 10 10 10 10 10 10 10 10 10 10 10 10 11 11 9 8 7 6 7 7 8 8 8 8 9 9 9 9 8 7 7 7 6 6 6 7 7 8 8 8 7 7 7 7 8 8 9 10 10 11 11 11 11 11 11 11 11 10 10 10 10 10 10 10 10 10
10 10 10 10 10 10 10 10 10 10 10 10 10 10 10 11 11 11 9 7 6 6 6 6 7 7 8 9 9 9 8 8 7 7 6 6 6 6 7 7 7 7 7 7 7 7 7 8 9 10 10 11 11 11 11 11 11 10 10 10 10 10 10 10 10 10 10 10 10
10 10 10 10 10 10 10 10 10 10 10 10 10 10 11 11 12 11 10 8 6 6 6 6 6 7 8 9 9 9 8 8 7 7 7 7 7 7 7 6 6 6 6 6 6 7 8 9 10 10 11 11 11 11 10 10 10 10 10 10 10 10 10 10 10 10 10 10 10
10 10 10 10 9 9 9 9 9 9 9 9 9 10 10 11 11 11 10 8 6 6 6 6 7 7 8 8 9 9 8 7 7 7 7 8 7 7 6 6 6 5 5 5 6 7 8 9 10 10 11 11 10 10 10 10 10 10 10 10 10 10 10 10 10 10 10 10 9
10 10 10 9 9 9 9 9 9 9 8 8 8 8 9 10 10 10 9 7 6 6 6 7 7 8 8 9 9 8 8 7 7 7 7 7 7 6 6 5 5 5 5 5 6 7 8 9 10 10 10 10 10 10 10 10 10 10 10 10 10 10 10 10 10 9 9 9 9
10 9 9 9 9 9 8 8 8 8 8 7 7 8 8 9 9 9 7 6 6 6 7 7 8 8 9 9 8 8 8 7 7 7 7 7 7 6 6 5 4 4 5 5 6 7 7 8 9 9 9 9 9 9 10 10 10 10 10 10 10 10 10 9 9 9 9 9 9
9 9 9 9 9 9 9 9 8 8 8 8 8 8 8 8 8 8 7 6 6 7 7 7 8 8 9 8 8 8 7 8 8 8 8 7 7 6 6 5 5 4 4 4 5 6 7 7 8 9 9 9 9 9 9 9 10 10 10 9 9 9 9 9 9 9 9 9 9
9 9 9 8 8 9 9 9 8 8 8 8 8 9 9 8 8 8 7 7 7 7 7 7 8 8 8 8 8 8 7 8 8 9 9 8 7 7 6 5 5 4 4 4 5 6 6 7 8 8 9 9 9 9 9 9 9 9 9 9 9 9 9 9 9 9 9 9 9
9 8 8 8 8 8 9 8 8 8 8 8 8 9 9 9 9 8 8 8 8 8 8 8 8 8 8 8 8 8 8 8 8 8 9 8 7 6 6 5 4 4 4 4 5 6 6 6 7 8 8 8 8 8 8 9 9 9 9 9 9 9 9 9 9 9 9 9 9
8 8 8 8 8 8 8 8 8 7 7 7 8 8 9 9 9 8 8 8 8 8 8 8 8 7 7 7 8 8 7 7 7 8 8 7 6 6 5 4 4 4 4 5 5 6 6 6 7 7 8 8 8 8 8 8 9 9 9 9 9 9 9 9 9 9 9 9 9
8 8 8 8 8 8 8 7 7 7 7 7 7 8 8 8 8 8 9 9 9 9 8 8 8 7 7 7 7 7 6 6 6 7 7 6 6 5 5 4 4 4 5 5 5 5 6 6 7 7 7 7 8 8 8 8 9 9 9 9 9 9 9 8 8 8 8 8 8
8 8 8 8 8 8 7 7 7 7 7 7 7 7 7 8 8 8 8 9 9 9 8 8 7 7 7 7 6 6 6 5 5 5 6 5 5 5 5 4 5 5 5 5 5 6 6 7 7 7 7 7 7 8 8 8 8 8 8 8 8 8 8 8 8 8 8 8 7
8 8 8 8 8 8 8 7 7 7 7 7 7 7 7 7 8 8 8 8 8 8 8 7 6 6 6 6 5 5 5 5 5 5 5 5 5 5 5 5 5 5 5 5 6 6 7 7 7 7 7 7 8 8 8 8 8 8 8 8 8 8 8 8 8 7 7 7 7
8 8 9 9 8 8 8 8 7 7 7 7 7 7 7 7 7 8 8 8 8 7 7 6 6 6 5 5 5 4 4 4 4 5 5 5 5 5 5 5 5 5 5 5 6 7 7 7 7 7 7 8 8 8 8 8 8 8 8 8 8 8 7 7 7 7 7 7 7
8 8 8 8 8 8 8 8 7 7 7 6 6 6 6 6 7 7 8 8 7 7 6 6 6 5 5 5 5 4 4 4 4 5 5 5 5 5 5 5 5 5 5 6 6 7 7 7 7 7 7 7 7 7 8 7 7 7 7 7 7 7 7 7 7 7 7 7 7
7 7 7 7 7 7 7 7 7 7 6 6 6 6 6 6 6 7 7 7 6 6 6 6 5 5 5 5 5 4 4 4 4 5 5 5 5 5 5 5 5 5 5 6 6 6 6 6 6 6 6 6 6 7 7 7 7 7 7 7 7 7 7 7 7 6 6 6 6
7 7 7 7 7 7 7 7 7 6 6 6 6 6 6 6 6 6 6 6 6 6 6 5 5 5 5 5 5 5 5 5 4 4 4 4 5 5 5 5 5 5 5 5 6 6 6 6 6 6 6 6 6 6 7 6 6 6 6 6 6 6 6 6 6 6 5 5 5
7 7 7 6 6 6 6 6 6 6 6 6 5 5 5 6 6 6 6 6 5 5 5 5 5 5 4 4 4 5 5 5 4 4 4 4 4 5 5 5 5 5 5 5 5 5 6 6 6 6 6 5 6 6 6 6 6 6 6 6 6 6 6 5 5 5 5 5 5
7 6 6 6 6 6 6 6 6 6 6 5 5 5 5 5 5 5 5 5 5 5 5 5 5 4 4 4 4 4 4 4 4 4 4 4 4 4 4 4 4 4 5 5 5 5 6 6 6 5 5 5 5 5 6 6 6 6 6 5 5 5 5 5 4 4 4 4 4
6 6 6 6 6 5 5 5 5 5 5 5 5 5 5 5 5 5 5 5 5 5 5 5 4 4 4 4 4 4 4 4 4 5 4 4 4 4 4 4 4 4 5 5 5 6 6 6 5 5 5 4 5 5 6 6 6 5 5 5 5 4 4 4 4 4 4 4 4
6 5 5 5 5 5 5 5 5 5 5 5 5 5 5 5 5 5 5 5 5 5 5 4 4 4 4 4 4 4 4 4 4 4 4 4 4 4 4 4 4 4 5 5 5 5 6 6 5 5 5 4 5 5 5 5 5 5 5 4 4 4 4 4 4 4 4 4 4
5 5 5 5 5 5 5 5 5 5 5 5 5 5 5 5 5 5 5 5 5 5 4 4 4 4 4 4 4 4 4 4 4 4 4 4 4 4 4 4 4 4 5 5 5 5 6 6 6 5 5 5 5 5 5 4 4 4 4 4 4 3 4 4 4 4 4 4 4
5 5 5 5 5 5 5 5 5 5 5 5 5 5 4 4 4 5 5 5 5 4 4 4 4 4 4 4 4 4 4 4 4 4 4 4 4 4 4 4 5 5 5 5 5 6 6 6 6 5 5 5 4 4 4 4 3 3 3 3 3 4 4 4 4 4 4 4 4
5 5 5 5 5 5 5 5 5 5 5 4 4 4 4 4 4 4 5 4 4 4 4 4 4 4 4 4 4 4 4 4 4 4 4 4 4 5 5 5 5 5 5 5 6 6 6 6 5 5 4 4 3 3 3 3 3 3 3 3 4 4 4 4 4 4 4 4 3
5 5 5 5 5 5 4 4 5 5 4 4 4 4 4 4 4 4 4 4 4 4 4 4 4 4 4 4 4 4 4 4 4 4 5 5 5 5 5 6 6 6 6 6 6 6 6 5 5 4 3 2 2 2 2 2 3 3 3 4 4 4 4 4 4 4 3 3 3
4 5 5 5 5 4 4 4 4 4 4 4 4 4 4 4 4 4 4 4 4 4 4 4 4 4 4 4 4 4 4 5 5 5 5 5 5 6 6 6 6 6 6 6 6 5 5 4 4 3 2 2 2 2 2 3 3 3 4 4 4 4 4 3 3 3 3 2 2
4 4 4 4 4 4 4 4 4 4 4 3 3 4 4 4 4 4 4 4 4 4 4 4 4 4 4 4 4 5 5 5 5 5 5 5 6 6 6 6 6 6 6 6 5 5 4 3 3 2 2 1 1 2 2 3 3 3 4 4 4 3 3 3 2 2 2 2 2
4 4 4 4 4 4 3 3 3 3 3 3 3 3 4 4 4 4 4 4 4 4 4 4 4 4 4 5 5 5 5 5 5 5 5 6 6 6 6 6 5 5 5 5 4 4 3 3 2 2 2 1 2 2 3 3 3 4 4 3 3 3 2 2 2 1 1 1 1
3 3 4 4 4 3 3 3 3 3 3 3 3 3 4 4 4 4 3 4 4 4 4 4 4 4 5 5 5 5 6 6 6 6 6 6 5 5 5 5 5 5 4 4 4 3 3 2 2 2 2 2 2 2 3 3 3 3 3 3 2 2 1 1 1 1 0 0 -0
3 3 3 3 3 3 3 2 2 3 3 3 3 3 3 3 4 4 4 4 4 4 4 4 5 5 5 5 5 5 6 6 6 6 5 5 5 5 5 5 4 4 4 3 3 3 2 2 2 2 2 2 2 3 3 3 3 3 2 2 2 1 1 1 0 -0 -0 -0 -0
2 3 3 3 2 2 2 2 2 3 3 3 3 3 3 3 3 4 4 4 4 4 4 5 5 5 5 5 5 5 5 5 6 6 5 5 5 4 4 4 4 4 3 3 3 2 2 2 2 2 2 2 3 3 3 3 2 2 2 1 1 1 0 -0 -0 -0 -0 -0 -0
2 2 3 3 2 2 2 2 2 3 3 3 3 3 3 3 4 4 4 4 4 5 5 5 5 5 5 5 5 5 5 5 5 5 5 4 4 4 4 4 4 3 3 3 3 2 2 2 2 2 2 2 2 3 2 2 2 1 1 1 0 0 -0 -0 -0 -0 -0 -0 -0
1 2 2 2 2 2 2 2 2 3 3 3 3 3 3 4 4 4 4 4 5 5 5 5 5 5 5 5 5 5 5 4 4 4 4 4 3 3 3 4 4 3 3 3 2 2 2 2 2 2 2 2 2 2 2 2 1 1 1 0 0 -0 -0 -0 -0 -0 -0 -1 -1
0 1 1 2 2 2 2 2 2 3 3 3 3 3 3 4 4 4 4 4 4 5 5 5 4 4 4 4 5 5 4 4 3 3 3 3 3 3 3 3 3 3 3 3 2 2 2 2 2 2 2 2 2 1 1 1 1 0 0 0 -0 -0 -0 -1 -1 -1 -1 -1 -1
-0 0 1 1 1 1 2 2 2 3 3 3 3 3 4 4 4 4 4 4 4 4 4 4 4 4 4 4 4 4 4 3 2 2 2 2 2 2 3 3 3 3 3 2 2 2 2 1 1 1 1 1 1 1 1 0 0 0 0 -0 -0 -1 -1 -1 -1 -1 -1 -2 -2
Height
1375 1376 1378 1380 1383 1385 1387 1389 1392 1395 1398 1400 1403 1403 1402 1402 1403 1404 1405 1404 1405 1405 1406 1408 1409 1410 1412 1416 1419 1421 1424 1427 1430 1432 1434 1435 1435 1435 1435 1437 1439 1441 1445 1450 1453 1457 1460 1462 1466 1470 1475 1478 1481 1482 1482 1483 1483 1484 1485 1487 1489 1490 1492 1494 1496 1497 1499 1500 1502
1374 1375 1378 1380 1382 1385 1387 1389 1391 1394 1396 1398 1400 1402 1402 1403 1404 1405 1405 1405 1405 1405 1405 1405 1405 1407 1410 1415 1418 1421 1424 1426 1429 1432 1434 1435 1435 1435 1436 1437 1439 1441 1444 1448 1452 1456 1459 1461 1465 1468 1472 1476 1479 1480 1481 1482 1483 1483 1485 1486 1488 1490 1492 1494 1495 1497 1498 1500 1501
1373 1375 1378 1380 1382 1384 1386 1388 1390 1392 1394 1396 1398 1400 1401 1402 1403 1404 1405 1405 1404 1403 1402 1402 1402 1404 1408 1413 1417 1420 1422 1424 1426 1429 1432 1435 1435 1436 1437 1439 1440 1442 1445 1449 1452 1455 1458 1460 1463 1466 1470 1475 1477 1479 1480 1481 1482 1483 1484 1486 1488 1490 1491 1493 1494 1496 1497 1499 1500
1373 1375 1377 1380 1381 1383 1385 1386 1388 1390 1392 1392 1394 1396 1398 1400 1402 1403 1404 1404 1403 1401 1400 1400 1401 1403 1405 1409 1414 1416 1419 1421 1424 1427 1431 1434 1437 1439 1440 1440 1440 1443 1447 1450 1453 1455 1457 1460 1463 1466 1470 1474 1476 1478 1480 1481 1483 1484 1485 1486 1487 1489 1490 1492 1494 1495 1497 1498 1499
1372 1374 1376 1378 1380 1382 1384 1386 1387 1389 1389 1390 1390 1391 1393 1396 1400 1403 1405 1405 1404 1402 1400 1399 1400 1401 1403 1405 1409 1412 1416 1420 1423 1426 1430 1434 1438 1440 1441 1441 1441 1444 1447 1451 1454 1455 1457 1460 1463 1466 1470 1474 1477 1479 1480 1482 1483 1484 1485 1485 1487 1488 1490 1491 1493 1494 1495 1497 1498
1371 1373 1375 1377 1380 1382 1384 1385 1386 1388 1388 1388 1389 1387 1387 1391 1398 1404 1407 1408 1406 1403 1401 1399 1399 1400 1400 1402 1406 1410 1415 1419 1423 1426 1429 1433 1438 1441 1441 1440 1440 1443 1448 1452 1455 1457 1458 1460 1464 1467 1471 1474 1477 1480 1481 1482 1483 1484 1485 1485 1487 1488 1490 1491 1492 1493 1494 1495 1496
1370 1373 1375 1378 1380 1382 1383 1384 1385 1387 1389 1389 1388 1386 1384 1386 1395 1403 1409 1410 1409 1406 1403 1400 1399 1399 1400 1402 1406 1411 1415 1419 1423 1426 1430 1433 1438 1441 1442 1440 1441 1445 1450 1453 1456 1458 1460 1462 1465 1468 1471 1474 1477 1479 1480 1481 1482 1483 1484 1485 1486 1488 1489 1490 1491 1492 1493 1494 1495
1369 1372 1375 1378 1380 1381 1382 1382 1384 1387 1389 1390 1389 1386 1385 1384 1389 1398 1406 1410 1411 1410 1406 1402 1400 1400 1401 1404 1408 1412 1416 1420 1424 1427 1430 1433 1439 1442 1443 1442 1444 1447 1451 1455 1457 1458 1460 1463 1466 1469 1471 1473 1476 1478 1479 1480 1481 1483 1484 1485 1486 1487 1488 1490 1490 1492 1493 1494 1494
1368 1370 1373 1374 1375 1377 1378 1380 1382 1385 1387 1388 1388 1386 1385 1384 1385 1392 1401 1408 1412 1411 1408 1404 1402 1402 1404 1406 1410 1413 1417 1421 1424 1427 1429 1433 1439 1443 1444 1445 1447 1450 1453 1456 1458 1459 1462 1465 1467 1469 1471 1473 1475 1477 1478 1479 1480 1481 1483 1484 1485 1486 1487 1488 1490 1491 1492 1493 1494
1368 1369 1371 1371 1372 1373 1374 1375 1378 1381 1384 1386 1385 1385 1384 1384 1384 1388 1395 1404 1409 1411 1409 1406 1405 1405 1406 1408 1411 1415 1418 1422 1425 1426 1428 1432 1438 1443 1446 1447 1449 1451 1454 1456 1459 1461 1463 1466 1468 1470 1471 1473 1475 1476 1477 1478 1479 1480 1481 1482 1483 1484 1486 1488 1489 1490 1490 1491 1492
1367 1369 1370 1370 1371 1371 1371 1372 1374 1378 1381 1384 1384 1384 1383 1383 1383 1386 1393 1401 1407 1410 1410 1408 1407 1406 1407 1410 1413 1416 1419 1422 1425 1426 1427 1430 1436 1442 1446 1449 1451 1453 1455 1457 1460 1462 1465 1467 1469 1471 1472 1474 1475 1476 1477 1477 1478 1479 1480 1481 1482 1484 1485 1486 1488 1488 1488 1489 1490
1367 1368 1369 1370 1370 1370 1371 1371 1374 1377 1380 1382 1383 1384 1384 1384 1384 1387 1393 1401 1407 1410 1411 1410 1408 1407 1409 1411 1414 1417 1420 1423 1425 1426 1428 1430 1435 1440 1446 1450 1453 1455 1457 1459 1460 1463 1465 1468 1470 1472 1473 1474 1475 1476 1477 1477 1477 1478 1479 1480 1481 1483 1484 1485 1486 1486 1487 1487 1487
1367 1368 1369 1369 1370 1370 1371 1372 1375 1377 1380 1382 1383 1384 1385 1385 1386 1389 1395 1402 1408 1411 1411 1410 1409 1409 1410 1413 1416 1418 1421 1423 1424 1426 1428 1430 1434 1439 1445 1450 1453 1456 1458 1459 1461 1463 1466 1469 1471 1473 1474 1475 1476 1476 1477 1477 1477 1478 1478 1479 1480 1481 1483 1483 1484 1484 1485 1485 1485
1368 1368 1368 1368 1369 1370 1371 1373 1375 1378 1380 1381 1382 1383 1384 1386 1388 1391 1396 1403 1408 1410 1411 1411 1411 1411 1412 1414 1416 1419 1421 1422 1423 1425 1427 1430 1434 1439 1443 1448 1452 1455 1457 1459 1461 1463 1466 1469 1472 1473 1475 1475 1476 1476 1477 1477 1477 1477 1478 1479 1480 1480 1481 1482 1482 1482 1482 1483 1483
1368 1367 1367 1367 1368 1369 1371 1373 1375 1378 1380 1381 1381 1382 1383 1385 1388 1392 1398 1403 1407 1410 1410 1411 1411 1412 1413 1415 1416 1418 1420 1422 1422 1423 1425 1429 1433 1438 1442 1446 1449 1452 1455 1458 1460 1463 1465 1469 1471 1473 1475 1475 1475 1476 1476 1476 1476 1477 1477 1478 1479 1479 1480 1480 1480 1480 1481 1481 1481
1367 1366 1366 1366 1367 1369 1371 1373 1375 1377 1379 1380 1380 1381 1383 1385 1388 1392 1398 1403 1406 1408 1409 1410 1410 1412 1414 1415 1416 1418 1420 1421 1422 1423 1425 1427 1432 1436 1441 1445 1448 1451 1454 1457 1460 1462 1465 1468 1471 1473 1474 1475 1475 1475 1475 1475 1476 1476 1477 1477 1477 1478 1478 1478 1479 1479 1479 1480 1480
1368 1366 1365 1365 1366 1368 1370 1373 1375 1377 1378 1380 1380 1381 1383 1385 1388 1392 1396 1400 1403 1405 1407 1409 1410 1412 1414 1415 1417 1419 1420 1421 1422 1423 1425 1427 1431 1435 1440 1444 1447 1451 1454 1456 1459 1462 1465 1468 1470 1472 1472 1473 1474 1474 1474 1475 1475 1475 1475 1476 1476 1476 1476 1477 1477 1477 1478 1478 1478
1368 1365 1365 1365 1366 1368 1370 1372 1374 1376 1378 1380 1381 1382 1384 1386 1389 1392 1395 1398 1400 1402 1405 1407 1410 1411 1413 1415 1417 1419 1420 1421 1422 1423 1425 1428 1431 1435 1439 1443 1447 1450 1453 1455 1459 1462 1464 1467 1468 1470 1470 1471 1472 1473 1474 1474 1475 1475 1475 1475 1475 1475 1475 1476 1476 1476 1477 1477 1477
1368 1365 1364 1365 1365 1367 1369 1370 1373 1375 1378 1380 1382 1383 1385 1387 1389 1392 1395 1398 1399 1401 1403 1406 1409 1411 1412 1414 1416 1418 1420 1421 1422 1424 1426 1429 1432 1435 1439 1443 1446 1450 1452 1455 1458 1461 1463 1465 1466 1467 1469 1470 1471 1472 1473 1474 1474 1474 1474 1474 1474 1475 1475 1475 1475 1475 1475 1475 1475
1367 1365 1363 1364 1364 1365 1367 1370 1373 1376 1378 1381 1383 1385 1386 1388 1390 1393 1395 1398 1400 1402 1404 1406 1408 1410 1412 1414 1416 1418 1420 1422 1423 1425 1427 1430 1433 1436 1440 1443 1446 1450 1452 1455 1457 1460 1461 1463 1464 1466 1467 1469 1470 1471 1472 1473 1473 1474 1474 1474 1474 1474 1474 1474 1474 1474 1474 1474 1475
1365 1363 1362 1362 1363 1365 1367 1370 1373 1376 1379 1382 1384 1385 1387 1390 1391 1393 1395 1397 1400 1402 1405 1407 1409 1410 1412 1414 1415 1418 1420 1423 1425 1427 1429 1432 1434 1437 1440 1443 1446 1450 1452 1454 1456 1458 1460 1461 1463 1464 1466 1468 1470 1471 1472 1473 1473 1473 1473 1473 1473 1473 1473 1473 1473 1473 1473 1473 1474
1363 1362 1362 1362 1363 1365 1368 1371 1374 1377 1380 1382 1384 1386 1388 1390 1391 1393 1394 1396 1399 1402 1405 1407 1409 1410 1412 1413 1415 1417 1420 1423 1425 1428 1430 1432 1435 1437 1440 1443 1446 1449 1451 1453 1455 1456 1458 1460 1461 1463 1465 1467 1469 1471 1472 1473 1473 1473 1473 1473 1473 1472 1472 1472 1472 1472 1472 1473 1473
1362 1362 1362 1363 1365 1367 1370 1372 1375 1377 1379 1381 1384 1385 1387 1389 1391 1393 1394 1396 1399 1401 1404 1407 1409 1411 1412 1414 1415 1417 1419 1422 1425 1428 1430 1432 1435 1437 1440 1442 1445 1448 1450 1452 1453 1455 1456 1457 1460 1462 1465 1467 1469 1470 1471 1472 1472 1472 1472 1472 1472 1471 1471 1471 1472 1472 1472 1472 1473
1360 1361 1363 1365 1367 1369 1371 1373 1375 1377 1379 1381 1383 1385 1387 1389 1390 1392 1394 1396 1399 1401 1404 1406 1409 1411 1413 1414 1416 1418 1420 1422 1424 1427 1430 1432 1435 1437 1440 1442 1445 1447 1449 1451 1452 1453 1454 1456 1459 1462 1465 1467 1469 1470 1470 1470 1471 1471 1471 1471 1471 1471 1471 1471 1471 1472 1472 1472 1472
1360 1361 1363 1365 1368 1370 1372 1373 1375 1377 1379 1381 1383 1385 1386 1388 1390 1392 1394 1396 1399 1401 1404 1407 1409 1411 1413 1415 1417 1419 1420 1422 1424 1427 1429 1432 1435 1437 1440 1442 1445 1447 1448 1450 1451 1452 1454 1456 1460 1462 1465 1466 1468 1468 1469 1470 1470 1470 1470 1470 1470 1470 1471 1471 1471 1471 1471 1471 1471
1360 1362 1364 1366 1368 1370 1372 1374 1375 1377 1379 1380 1382 1384 1386 1388 1390 1392 1394 1396 1399 1402 1405 1407 1409 1411 1413 1415 1417 1419 1421 1423 1425 1427 1430 1432 1435 1437 1440 1442 1445 1446 1448 1450 1451 1453 1455 1458 1460 1462 1464 1465 1466 1467 1468 1468 1469 1469 1469 1469 1470 1470 1471 1471 1470 1470 1470 1470 1470
1360 1362 1364 1366 1368 1370 1372 1374 1375 1377 1379 1380 1382 1384 1386 1388 1390 1392 1394 1396 1399 1402 1405 1407 1410 1411 1413 1415 1417 1419 1421 1423 1426 1428 1430 1433 1435 1438 1440 1442 1444 1446 1448 1450 1452 1454 1456 1458 1460 1461 1463 1464 1465 1466 1467 1467 1467 1467 1468 1468 1469 1470 1470 1470 1470 1469 1469 1469 1469
1361 1363 1365 1366 1368 1370 1372 1374 1375 1377 1379 1380 1382 1384 1386 1388 1390 1392 1394 1396 1399 1402 1405 1407 1410 1411 1413 1415 1417 1419 1421 1424 1426 1429 1431 1433 1436 1438 1440 1442 1444 1445 1448 1450 1452 1455 1456 1458 1460 1461 1462 1464 1465 1465 1465 1466 1466 1466 1467 1468 1468 1469 1469 1469 1468 1468 1468 1468 1468
1362 1363 1365 1367 1369 1370 1372 1374 1375 1377 1379 1380 1382 1384 1385 1387 1390 1392 1394 1396 1399 1401 1404 1407 1409 1411 1413 1415 1418 1420 1422 1425 1427 1430 1432 1434 1436 1438 1440 1442 1443 1445 1448 1450 1453 1455 1457 1458 1459 1460 1462 1463 1464 1464 1464 1465 1465 1466 1466 1467 1467 1467 1467 1467 1467 1467 1467 1467 1467
1362 1364 1365 1367 1369 1370 1372 1374 1375 1377 1379 1381 1382 1384 1385 1387 1390 1392 1394 1397 1399 1402 1404 1406 1409 1411 1413 1416 1418 1420 1423 1425 1428 1430 1432 1434 1436 1438 1440 1441 1444 1446 1449 1452 1454 1455 1456 1458 1459 1460 1461 1462 1462 1462 1463 1464 1464 1465 1465 1466 1466 1466 1466 1465 1466 1466 1466 1465 1465
1362 1364 1365 1367 1369 1370 1372 1374 1376 1377 1379 1381 1382 1384 1386 1388 1390 1392 1395 1397 1400 1402 1405 1407 1409 1411 1414 1416 1418 1420 1423 1425 1428 1430 1432 1434 1436 1438 1440 1442 1445 1447 1450 1452 1454 1455 1456 1457 1458 1459 1460 1460 1461 1461 1462 1463 1463 1464 1464 1464 1464 1464 1464 1465 1465 1465 1465 1464 1464
1362 1364 1365 1367 1369 1370 1372 1374 1375 1377 1379 1381 1383 1384 1386 1388 1390 1393 1395 1398 1401 1403 1406 1408 1410 1412 1415 1417 1419 1421 1423 1425 1428 1430 1432 1434 1436 1438 1440 1443 1445 1447 1450 1451 1453 1454 1455 1456 1457 1458 1459 1460 1460 1461 1461 1462 1462 1463 1463 1463 1463 1463 1463 1463 1464 1464 1463 1463 1463
1362 1364 1365 1366 1368 1370 1371 1373 1375 1377 1379 1381 1383 1385 1386 1389 1391 1394 1397 1400 1402 1404 1407 1409 1411 1413 1415 1417 1419 1421 1424 1426 1428 1430 1432 1434 1436 1439 1440 1442 1444 1446 1448 1450 1451 1453 1454 1455 1456 1457 1458 1459 1460 1460 1461 1461 1461 1461 1462 1462 1462 1462 1462 1462 1462 1462 1462 1462 1462
1362 1363 1365 1366 1367 1369 1371 1373 1375 1377 1379 1381 1383 1385 1387 1389 1392 1395 1397 1400 1403 1405 1408 1410 1412 1414 1415 1417 1419 1421 1424 1426 1428 1430 1432 1434 1436 1438 1440 1441 1443 1445 1447 1448 1450 1451 1453 1454 1455 1456 1457 1458 1459 1460 1460 1460 1460 1460 1460 1461 1461 1461 1461 1462 1462 1461 1461 1461 1462
1362 1363 1364 1365 1367 1369 1370 1373 1375 1377 1379 1382 1384 1386 1388 1390 1393 1395 1398 1400 1403 1405 1408 1410 1412 1414 1416 1418 1420 1422 1424 1426 1428 1430 1432 1434 1436 1437 1439 1440 1442 1444 1446 1448 1449 1450 1452 1453 1455 1456 1457 1458 1459 1459 1459 1459 1459 1459 1460 1460 1460 1460 1461 1461 1461 1461 1461 1461 1461
1361 1362 1364 1365 1367 1368 1370 1373 1375 1378 1380 1382 1385 1387 1390 1392 1394 1396 1399 1401 1403 1406 1408 1410 1412 1414 1416 1418 1420 1422 1424 1426 1428 1430 1432 1434 1435 1437 1439 1440 1442 1444 1445 1447 1449 1450 1451 1453 1454 1455 1456 1457 1458 1458 1458 1458 1458 1459 1459 1459 1460 1460 1460 1460 1460 1460 1461 1461 1461
1361 1362 1363 1365 1366 1369 1371 1373 1376 1379 1381 1383 1385 1388 1390 1393 1395 1398 1400 1402 1404 1406 1409 1411 1413 1415 1416 1418 1420 1422 1425 1427 1429 1430 1432 1434 1435 1437 1439 1440 1442 1443 1445 1447 1448 1450 1451 1453 1454 1455 1456 1457 1457 1457 1457 1457 1457 1458 1458 1459 1459 1460 1460 1460 1460 1460 1461 1461 1462
1362 1362 1363 1365 1366 1369 1372 1374 1377 1379 1381 1384 1387 1389 1391 1394 1396 1399 1401 1403 1405 1407 1409 1411 1413 1415 1417 1419 1420 1422 1425 1427 1429 1430 1432 1434 1436 1437 1439 1440 1442 1443 1445 1446 1448 1450 1451 1453 1454 1455 1456 1456 1456 1456 1456 1457 1457 1457 1458 1458 1459 1459 1460 1460 1460 1460 1461 1461 1462
1363 1363 1364 1365 1367 1370 1372 1375 1377 1380 1382 1385 1388 1390 1393 1395 1397 1399 1402 1404 1406 1407 1409 1411 1413 1415 1417 1419 1420 1423 1425 1427 1429 1430 1432 1434 1436 1438 1440 1440 1442 1443 1445 1446 1448 1450 1451 1453 1454 1455 1455 1455 1456 1456 1456 1456 1457 1457 1458 1458 1459 1459 1459 1460 1460 1460 1461 1461 1462
1364 1365 1365 1366 1368 1370 1373 1375 1378 1381 1383 1386 1388 1391 1393 1395 1398 1400 1402 1404 1406 1408 1410 1412 1414 1415 1417 1419 1420 1422 1424 1426 1429 1431 1433 1435 1437 1439 1440 1441 1442 1443 1445 1446 1448 1450 1451 1453 1454 1454 1455 1455 1455 1455 1456 1456 1457 1457 1457 1458 1458 1459 1459 1460 1460 1460 1461 1461 1462
1365 1366 1367 1368 1369 1371 1374 1376 1379 1382 1385 1387 1389 1391 1394 1396 1398 1400 1402 1404 1406 1408 1410 1412 1414 1416 1417 1419 1420 1422 1424 1426 1429 1431 1433 1435 1437 1439 1440 1441 1442 1443 1445 1446 1448 1450 1451 1452 1453 1454 1454 1455 1455 1455 1456 1456 1457 1457 1457 1458 1458 1459 1459 1460 1460 1460 1461 1461 1461
Wind_Speed
30 28 26 25 24 23 23 23 24 25 25 25 23 21 22 25 30 35 41 47 51 54 55 55 55 54 53 52 53 53 51 50 49 48 47 49 51 53 53 53 53 52 49 46 44 41 39 38 37 35 32 30 30 30 30 30 30 29 29 27 26 25 23 21 20 18 16 15 14
26 24 21 21 21 21 22 23 24 25 26 27 25 23 23 25 28 32 36 41 47 51 53 54 55 54 53 52 51 50 49 47 45 44 44 46 49 52 52 51 50 49 47 44 42 41 39 38 37 34 32 31 31 31 31 30 30 29 28 27 25 24 22 20 18 17 15 14 13
21 19 18 19 21 22 25 27 29 30 30 30 28 26 25 26 27 29 32 37 43 48 51 53 54 54 53 52 51 49 47 45 43 42 42 43 46 49 49 48 47 47 45 40 39 40 39 38 36 34 32 31 32 31 31 30 29 28 27 26 24 22 20 19 17 16 15 13 12
18 19 22 24 26 29 31 33 35 35 35 34 32 30 28 27 27 28 30 34 40 45 49 52 53 53 53 53 52 50 48 45 43 42 41 41 41 43 44 45 45 44 41 38 38 39 38 37 35 33 31 31 31 30 29 28 27 26 25 24 22 21 19 17 16 15 14 12 11
22 26 29 30 32 33 35 36 38 39 38 36 34 33 31 29 28 28 29 32 36 42 47 50 51 51 51 53 53 52 49 45 43 42 40 39 38 39 41 42 41 41 40 38 37 37 36 34 32 30 29 29 29 28 27 26 26 24 23 22 21 19 18 17 15 14 12 11 9
29 30 30 30 32 35 36 35 36 35 33 33 34 35 36 34 32 30 29 30 34 38 43 47 49 49 49 51 51 50 48 45 42 41 40 39 37 36 37 37 39 40 39 37 36 35 33 31 29 28 28 28 27 27 25 24 23 22 21 20 19 18 17 15 14 12 10 9 7
31 29 28 27 27 24 22 21 26 29 30 29 32 35 39 42 44 40 34 32 33 35 39 42 44 45 45 45 45 44 44 43 41 40 39 38 35 32 31 32 33 35 36 36 34 31 28 26 26 26 27 28 27 26 24 23 21 20 19 18 18 17 15 14 12 10 8 6 5
28 28 26 23 20 18 19 21 26 29 29 30 33 36 40 44 47 47 43 36 33 33 35 37 39 40 41 41 40 41 41 40 39 39 39 36 31 28 27 28 30 32 34 33 31 27 25 24 25 26 27 28 27 26 24 22 20 19 19 18 16 15 14 12 9 7 6 4 3
26 27 27 27 26 26 26 27 30 31 33 35 36 38 41 44 47 49 48 41 36 34 34 34 36 37 38 38 38 39 39 38 39 39 38 34 30 27 26 27 29 31 32 30 28 25 24 25 26 27 28 28 26 25 23 22 21 20 18 16 15 13 11 10 8 7 6 6 7
27 28 29 30 30 30 29 30 32 34 36 38 39 40 42 44 46 49 49 45 39 35 33 34 35 36 36 35 35 36 38 39 39 38 37 34 31 28 27 27 28 29 30 29 27 26 25 26 27 28 28 26 25 24 23 23 21 19 17 15 13 12 11 10 9 9 9 11 13
27 29 30 31 32 31 31 31 33 36 37 38 39 40 41 43 45 46 45 41 37 34 33 34 34 34 33 35 34 36 39 39 38 36 35 34 32 30 28 27 27 28 28 27 26 26 26 26 27 28 27 25 24 24 24 23 21 20 18 16 15 14 13 11 10 10 10 10 10
27 28 29 29 30 30 31 32 33 36 37 38 38 38 38 39 40 39 37 34 33 33 32 31 31 30 31 33 34 37 39 38 36 34 34 33 33 31 30 29 28 28 27 26 25 25 26 26 27 27 26 24 24 24 23 23 22 22 20 18 16 14 13 11 9 8 7 7 7
26 27 27 28 28 29 30 31 33 35 36 36 36 35 34 34 33 31 29 29 30 30 29 27 26 27 28 31 35 37 38 36 35 33 32 32 33 33 33 32 31 30 29 27 27 26 26 25 25 25 25 24 24 23 22 21 20 20 18 16 14 12 11 9 8 7 6 7 8
27 27 28 28 29 29 30 31 33 34 35 34 34 33 31 29 28 26 26 26 27 26 25 24 25 26 28 32 36 37 37 36 35 33 32 32 33 35 36 35 35 34 32 31 29 28 26 23 22 23 24 24 23 21 19 18 17 16 15 13 11 10 9 8 7 7 7 8 9
28 29 29 29 29 30 31 32 33 34 35 34 33 32 30 29 27 26 25 25 24 24 23 24 26 29 31 33 36 37 37 36 35 34 34 35 36 37 37 37 36 35 34 32 30 28 25 22 21 22 22 22 21 19 17 16 15 14 13 11 10 9 8 7 7 8 9 10 11
28 30 30 30 30 31 32 33 35 35 35 34 33 32 31 30 29 27 25 24 22 22 22 23 27 31 33 34 35 37 37 37 36 36 36 38 39 38 37 36 35 34 33 32 29 27 24 22 22 21 21 20 18 16 15 13 12 11 11 10 9 8 7 8 8 9 9 10 11
28 30 31 31 32 32 33 35 36 36 35 34 33 32 32 32 30 28 26 23 22 22 22 24 28 31 34 34 36 37 38 38 38 38 38 39 39 37 36 35 34 33 32 30 28 26 24 23 23 21 19 17 16 14 13 12 11 10 9 8 8 7 8 8 8 9 10 10 11
29 30 31 31 33 34 35 35 35 35 35 34 34 33 33 33 32 29 26 24 25 26 27 28 31 33 35 35 37 38 38 39 39 39 38 38 38 36 35 34 33 32 30 29 27 26 25 24 22 20 18 16 14 12 11 10 9 8 8 7 7 7 8 8 9 9 9 10 11
32 32 32 32 33 34 34 35 34 34 34 35 35 35 35 34 32 29 26 24 26 28 30 32 34 36 37 38 38 39 38 38 38 38 38 37 37 36 35 34 33 31 29 28 27 26 25 23 20 18 16 14 12 10 9 9 8 8 7 7 7 7 8 8 9 9 10 10 12
35 35 34 33 34 34 34 34 33 34 34 35 35 36 36 35 32 28 25 25 27 29 31 33 36 37 38 39 39 39 38 37 37 37 37 37 36 36 35 33 32 30 29 28 27 26 23 21 18 15 13 11 9 8 8 8 8 7 7 7 7 7 8 8 9 9 10 11 12
38 36 35 35 34 34 34 34 34 34 35 35 36 36 36 35 32 28 26 26 29 32 33 35 37 38 38 39 39 39 38 37 37 37 37 37 36 35 34 33 31 30 28 27 25 23 20 17 15 12 10 8 7 7 7 8 8 8 7 7 7 8 8 8 9 10 11 12 12
38 36 36 35 35 35 35 34 34 35 35 36 37 36 35 34 32 30 29 30 33 35 36 37 38 38 38 39 39 39 39 38 38 37 37 37 36 35 33 32 31 29 27 25 23 20 17 15 12 10 7 6 6 7 8 8 8 8 7 7 7 8 8 9 9 10 11 11 12
37 36 36 36 36 36 35 35 35 36 36 37 37 36 35 34 32 32 33 35 36 37 38 39 39 38 38 39 39 40 40 40 39 38 37 36 35 34 33 31 29 27 25 23 21 19 16 14 11 9 7 6 7 8 8 8 8 7 7 8 8 8 9 9 9 10 10 10 11
38 38 37 36 36 36 36 36 36 37 37 37 37 36 35 34 34 35 36 38 39 39 39 40 39 39 39 39 40 40 40 40 40 39 37 36 34 33 32 30 28 26 24 22 19 17 16 14 11 9 7 7 8 8 8 7 8 8 8 8 8 9 9 9 9 9 9 9 9
39 39 38 37 37 37 37 37 37 38 38 37 37 36 35 35 36 37 39 40 40 40 40 40 40 39 40 40 40 40 40 39 39 38 37 35 33 32 30 28 26 24 22 20 18 16 14 13 11 9 7 7 7 7 7 8 8 8 8 8 8 8 8 8 8 8 8 8 8
41 40 40 39 39 38 38 38 38 38 38 37 37 37 37 37 38 39 40 41 40 40 40 40 40 41 41 41 41 40 39 38 37 37 35 34 32 30 28 26 24 22 20 18 16 14 13 12 10 8 6 6 7 7 8 9 8 7 7 7 7 7 8 8 8 8 7 7 6
42 41 41 40 40 39 39 39 38 38 38 38 38 38 38 39 40 41 41 41 41 40 40 41 42 42 42 41 40 39 38 37 36 35 33 32 30 28 26 24 22 20 17 15 13 12 10 9 7 6 6 6 7 8 8 8 7 6 6 6 6 7 7 7 8 7 6 5 5
42 42 42 41 40 40 40 39 39 39 38 39 39 39 40 41 42 42 42 42 41 41 42 42 43 43 43 41 40 38 37 36 34 33 31 29 27 25 23 21 19 17 15 12 10 9 7 6 6 6 7 8 8 8 7 6 5 5 5 5 6 6 7 8 7 7 6 5 4
42 42 42 41 41 40 40 39 39 39 39 40 40 41 42 43 43 43 42 42 42 43 44 44 44 44 42 40 39 37 36 34 32 30 28 26 24 22 20 18 16 14 12 10 8 7 7 7 7 8 9 9 8 7 6 5 5 5 5 6 7 7 7 7 7 6 6 5 5
43 43 42 41 41 40 40 39 39 39 40 41 42 42 43 44 44 43 43 43 43 44 45 45 44 43 41 40 38 36 34 32 30 27 25 23 21 20 18 16 14 13 11 10 9 8 8 8 9 9 9 8 7 6 5 5 5 6 7 7 7 7 7 6 6 5 5 5 4
44 43 43 42 41 40 40 40 40 40 41 42 43 44 44 44 44 43 43 43 44 44 44 44 43 42 40 38 36 34 32 30 28 26 23 21 20 19 18 17 15 14 13 12 11 10 9 10 10 9 8 7 6 6 6 6 7 7 7 7 7 6 6 5 5 4 4 3 2
44 44 43 42 42 41 41 41 42 42 43 44 45 45 45 45 44 44 43 44 44 44 44 43 42 40 39 37 34 32 30 28 26 24 22 20 19 19 18 18 17 16 14 13 12 11 11 10 9 8 7 7 7 7 7 7 7 7 7 6 6 5 4 4 3 2 2 1 1
45 45 44 43 43 43 43 43 44 45 45 46 46 46 45 45 44 44 44 44 45 44 43 41 40 39 37 35 33 31 29 26 25 23 21 20 19 19 18 18 17 16 15 14 13 12 11 10 9 8 8 8 8 8 8 8 7 7 6 5 4 3 3 2 2 2 2 2 3
46 45 45 44 44 44 45 46 46 47 47 47 47 46 46 46 46 46 46 46 45 44 42 40 38 37 35 33 31 30 28 25 23 22 21 20 19 19 18 17 16 15 15 14 13 12 10 9 9 8 9 9 9 8 8 7 6 5 4 4 3 3 3 2 2 3 3 3 3
46 46 46 46 46 46 47 48 48 48 48 48 48 47 47 47 47 48 47 46 45 43 41 39 37 35 33 31 30 28 26 24 23 21 20 20 19 18 17 16 15 15 14 13 12 11 10 9 9 9 9 9 8 7 7 6 5 4 4 4 4 4 3 3 3 4 4 4 4
47 47 47 47 47 48 49 50 50 50 49 49 49 49 49 49 49 48 47 46 44 42 40 37 35 33 32 30 28 27 25 23 22 21 20 18 17 16 15 15 15 14 13 12 11 11 10 10 9 9 8 8 7 6 6 5 5 5 5 5 5 5 5 5 5 5 5 5 5
48 48 48 48 49 50 51 51 51 51 50 50 51 51 51 50 49 48 47 45 43 41 38 36 34 32 30 29 27 26 24 22 21 20 19 17 16 15 14 14 14 14 13 13 12 11 10 10 9 8 7 7 6 5 5 5 6 6 6 6 6 6 6 6 6 6 6 6 5
49 49 50 50 51 52 52 52 52 52 52 52 52 52 51 50 49 47 45 43 41 39 37 34 33 31 30 28 27 26 24 22 20 19 18 16 15 14 14 15 15 15 14 13 12 11 11 10 9 8 7 6 6 6 6 7 7 7 7 7 7 7 7 7 7 7 6 6 6
50 50 51 52 53 54 54 54 54 54 54 54 53 52 51 49 48 46 44 42 39 37 35 33 32 31 29 28 27 26 24 22 20 18 17 16 15 15 15 16 16 15 15 14 13 12 11 10 9 8 8 7 7 7 8 8 8 8 8 8 8 8 8 8 7 7 7 7 7
51 52 53 54 55 55 56 55 55 55 55 54 53 52 50 48 46 44 42 39 37 35 33 32 31 30 29 28 27 25 24 22 20 18 17 17 17 17 16 16 16 16 15 14 13 12 11 11 10 9 9 9 9 9 9 9 9 9 9 9 8 8 8 8 8 8 8 8 7
51 52 53 55 55 56 57 57 56 55 55 54 52 50 48 46 44 41 39 37 36 34 32 31 30 29 28 27 25 24 23 22 20 19 19 19 19 18 17 17 16 16 16 15 14 13 12 12 11 11 10 10 10 10 10 10 9 10 10 10 9 9 9 9 9 9 8 8 7
Wind_Direction
209 204 203 205 209 212 215 217 218 221 223 225 227 226 219 210 204 203 204 206 208 209 209 207 206 208 211 212 211 211 212 210 210 208 205 204 206 207 208 208 206 203 199 197 194 190 185 185 185 184 184 189 192 193 193 193 193 192 190 189 189 188 188 187 187 189 191 194 198
209 207 209 214 219 222 223 223 224 224 223 223 223 221 217 210 205 203 202 202 202 203 203 202 203 206 211 215 216 215 214 212 208 203 201 202 205 206 205 204 202 199 197 195 192 188 185 185 182 181 183 190 193 194 193 192 192 190 188 186 185 185 184 184 186 188 191 195 199
206 210 218 226 231 232 232 231 230 229 227 225 221 218 215 210 206 203 201 199 199 199 199 200 202 206 211 216 218 218 216 212 205 200 198 201 206 206 203 198 196 197 196 190 185 185 185 184 181 181 184 190 194 195 193 191 190 187 184 182 182 182 182 183 185 187 190 194 198
214 222 230 236 237 238 237 235 235 234 232 227 220 215 210 208 206 204 202 199 198 198 199 201 202 205 210 214 216 218 218 214 205 199 196 196 197 197 195 192 192 194 194 187 184 184 183 181 179 179 183 191 196 196 194 190 187 184 181 180 180 180 181 182 184 187 190 193 196
229 232 235 236 238 239 239 239 238 238 235 229 219 209 204 204 204 205 204 202 201 201 202 203 204 205 208 211 213 215 216 211 202 195 190 187 185 184 184 184 189 195 196 188 185 183 181 178 176 178 184 192 197 197 193 188 183 181 179 178 178 179 180 182 183 185 188 190 194
234 234 235 237 240 241 242 240 239 238 234 227 216 206 203 206 212 212 210 207 204 203 204 206 207 206 207 210 211 213 211 204 194 186 182 177 176 176 179 184 195 199 194 186 183 181 177 174 175 179 186 192 195 193 189 185 181 179 179 178 178 179 180 181 181 183 185 188 195
232 233 237 242 243 241 235 230 232 234 232 223 212 206 207 213 220 222 218 213 208 205 204 204 204 202 201 202 204 204 200 194 186 180 175 172 172 175 179 184 190 189 185 182 180 177 174 174 178 183 188 190 189 187 184 181 180 179 178 177 177 177 178 178 179 181 185 194 208
226 227 230 235 237 236 233 231 231 231 228 221 212 209 209 212 215 219 222 218 212 205 200 196 194 192 193 197 196 198 196 186 180 176 173 172 174 177 179 179 178 177 177 178 176 174 174 178 184 188 188 186 183 181 180 179 178 178 176 175 174 174 175 176 179 188 201 221 246
218 217 218 222 225 227 229 230 230 227 222 216 210 208 208 209 210 215 219 218 213 205 196 189 188 188 190 195 200 200 193 182 177 175 174 176 182 184 180 174 172 172 174 175 175 176 179 185 189 189 186 182 179 178 178 177 176 174 173 172 171 171 174 178 187 199 216 239 260
214 213 213 214 215 215 215 216 219 218 212 206 203 202 203 205 207 210 213 215 211 203 194 189 190 191 192 193 193 193 188 179 177 176 176 179 181 180 176 172 171 171 173 174 175 179 183 187 189 187 183 180 178 177 177 175 174 174 174 174 173 174 178 186 197 211 229 245 257
213 212 212 213 212 210 207 205 206 204 200 195 194 195 198 201 202 203 205 206 204 199 195 192 192 192 196 204 197 188 182 178 177 176 175 175 174 172 170 168 169 170 172 174 176 179 183 186 187 187 184 178 177 178 179 179 181 187 191 189 188 188 191 199 210 223 234 242 249
211 210 210 210 208 205 201 198 195 192 190 190 190 191 193 195 195 195 194 194 193 191 190 190 193 195 200 205 192 182 178 178 177 176 174 171 169 168 167 166 166 168 170 172 175 179 183 186 187 186 182 177 177 178 180 183 187 192 193 189 188 190 194 201 210 219 229 242 256
209 206 206 204 201 197 194 192 190 188 188 188 189 189 190 190 189 187 185 185 185 184 182 183 190 199 202 193 182 178 178 179 180 179 177 174 172 170 168 167 166 166 169 171 173 177 181 184 185 184 182 179 177 176 177 178 181 182 183 183 185 189 194 202 212 226 243 259 270
205 201 199 196 193 190 189 188 187 187 188 188 189 190 190 189 187 186 185 186 188 188 186 183 186 192 193 188 182 181 181 181 182 182 182 181 178 174 171 168 166 166 167 170 173 176 179 182 184 184 183 181 178 175 173 172 172 174 176 180 185 192 201 213 227 244 258 268 276
201 197 193 191 188 187 187 187 187 186 187 187 188 190 190 190 190 190 191 193 198 201 200 192 185 183 183 184 184 184 183 182 182 183 184 182 179 174 170 167 165 165 167 171 174 176 177 181 185 186 184 181 177 173 169 168 169 172 178 184 192 202 215 228 243 254 263 269 275
196 193 191 189 188 187 186 185 185 184 184 185 187 188 189 188 188 188 191 195 202 208 206 198 186 180 179 181 183 183 181 180 180 180 180 178 174 170 166 164 164 166 169 173 175 174 175 179 184 185 182 178 175 172 170 170 173 179 186 194 204 215 227 240 250 257 263 268 274
195 193 192 191 191 189 187 185 183 182 183 184 184 185 184 182 180 182 187 195 203 207 205 197 187 181 178 177 178 177 176 175 174 174 173 171 167 164 162 162 164 168 173 175 175 174 175 179 181 181 179 178 176 175 176 178 184 191 200 208 218 229 239 248 255 261 266 273 280
201 197 195 195 194 192 189 187 185 184 183 183 182 181 179 177 176 179 188 199 205 204 199 191 184 179 176 173 172 171 170 168 167 166 165 163 161 159 160 162 167 171 173 174 174 174 176 178 178 178 177 177 179 182 185 190 197 206 217 226 235 244 251 257 263 269 276 285 294
206 201 199 198 196 194 193 191 190 188 186 184 181 178 176 176 177 183 191 201 204 200 192 183 176 173 172 169 167 166 165 163 161 159 158 157 157 158 161 165 167 169 170 171 173 175 176 176 175 175 175 177 181 188 196 204 213 222 231 240 248 255 261 266 272 280 289 298 304
205 203 201 200 199 197 196 194 192 189 186 184 181 177 175 175 179 185 193 197 196 192 185 178 172 169 167 166 164 162 161 159 157 156 156 157 159 160 162 164 165 166 167 169 172 174 174 174 173 172 173 176 185 198 210 220 229 237 243 249 255 261 267 274 282 290 298 302 303
202 200 200 200 199 197 195 194 191 189 186 182 180 177 176 175 177 180 185 187 185 182 178 175 171 168 165 164 162 160 158 158 157 158 159 160 161 162 162 162 163 165 167 169 171 171 171 170 168 166 167 174 195 215 226 234 239 244 249 255 261 269 276 284 292 297 300 300 298
200 198 196 195 194 193 192 190 189 187 184 181 179 177 176 175 174 174 175 175 176 175 174 172 170 168 165 163 161 158 157 158 160 161 162 163 162 162 162 163 164 166 168 168 167 166 163 160 157 156 163 181 212 229 237 241 244 248 254 262 270 279 288 294 297 298 297 295 294
199 196 193 191 190 190 189 187 186 184 182 180 178 177 175 174 172 171 169 169 170 171 171 170 168 167 164 162 160 158 158 160 162 163 163 163 162 161 162 163 164 165 165 164 161 158 154 150 151 158 175 202 221 231 238 243 249 256 265 275 284 292 296 296 294 292 291 289 288
197 194 192 191 189 187 186 185 184 182 180 178 177 175 174 172 170 168 167 167 168 169 169 168 167 165 163 161 159 159 160 162 162 163 162 162 161 161 162 162 163 163 161 158 155 151 149 151 158 170 190 209 221 230 240 251 261 269 276 284 292 296 295 291 287 285 284 283 282
194 192 190 189 187 185 184 183 182 180 178 177 175 174 173 171 169 167 166 166 167 169 169 167 165 163 161 160 160 161 163 163 163 162 161 160 160 160 160 160 160 158 156 152 149 149 154 162 170 181 197 212 224 237 250 259 265 271 280 287 291 291 287 282 279 277 276 275 274
190 188 187 187 185 184 182 182 180 179 177 175 174 173 171 170 168 167 166 166 167 168 168 166 163 161 160 161 162 163 163 163 162 161 160 159 158 158 158 157 155 152 149 147 147 152 159 168 178 190 206 222 237 249 256 260 264 270 278 285 284 280 275 271 269 269 268 267 266
187 186 184 185 184 182 181 180 179 177 175 174 173 172 171 170 168 167 167 167 167 168 167 165 162 161 162 163 164 163 162 161 159 159 158 157 156 155 154 152 149 145 143 143 147 154 163 173 188 206 223 235 244 250 255 259 263 269 272 272 270 265 262 260 261 260 258 255 252
186 185 183 183 181 180 179 179 177 176 175 174 173 172 171 170 169 168 168 168 168 167 165 163 162 163 163 164 163 162 160 158 157 155 154 153 152 150 148 145 142 140 139 141 147 157 171 189 208 221 230 234 238 242 246 252 257 258 256 251 248 248 250 251 253 253 247 239 236
186 185 183 181 180 179 179 178 177 176 175 174 174 173 172 171 170 170 169 169 168 166 164 163 163 163 163 162 161 159 156 154 153 151 149 147 145 144 141 138 137 138 143 150 160 174 190 204 215 221 225 226 228 230 232 233 235 234 233 233 236 239 243 248 249 247 241 234 229
186 185 183 181 180 179 178 178 177 176 175 175 174 173 172 171 171 170 170 169 167 165 164 163 163 162 161 159 157 154 152 150 147 145 143 141 139 137 136 137 143 152 162 172 181 191 200 207 212 215 216 215 213 211 210 212 216 221 224 229 234 238 243 248 247 243 236 231 225
185 184 183 182 180 179 178 177 177 176 175 175 174 173 172 171 170 170 169 168 166 165 163 163 162 160 158 155 153 150 147 145 143 140 138 136 135 134 137 142 152 161 170 177 185 193 200 206 208 207 203 197 194 195 199 206 213 220 225 230 235 240 244 246 242 235 228 219 207
183 183 182 181 179 178 177 176 176 175 175 174 173 172 171 170 169 169 168 166 165 163 161 161 159 157 154 152 149 147 145 143 142 139 137 136 136 138 141 146 153 160 168 176 184 192 197 200 198 193 186 183 185 192 200 208 215 222 228 233 237 240 240 235 227 214 193 159 117
180 181 180 179 177 176 176 175 174 173 173 172 172 171 171 169 168 167 165 164 162 161 159 158 156 154 152 150 149 150 149 145 143 142 141 141 143 145 147 150 155 162 170 178 185 189 189 186 182 177 176 180 186 194 203 210 218 223 227 228 227 221 212 196 172 144 118 102 92
178 178 178 177 176 175 174 173 172 172 171 171 171 170 170 168 167 164 163 161 160 159 157 156 155 153 152 152 153 155 154 151 148 147 147 149 151 153 154 157 162 168 175 180 181 178 175 171 170 172 177 183 189 196 203 210 214 215 211 201 190 175 158 143 127 114 105 98 92
176 176 175 175 174 173 171 170 170 170 170 170 169 169 168 167 165 162 160 159 158 157 156 155 154 153 152 152 155 158 157 155 153 152 152 154 156 158 160 163 168 172 173 172 168 163 162 164 168 173 179 184 190 196 200 202 198 187 172 160 148 138 128 120 112 107 103 100 97
176 176 175 173 172 170 169 169 169 169 169 169 168 167 166 164 162 160 159 158 157 156 154 153 153 151 151 151 152 154 154 154 154 155 156 157 159 162 165 167 168 167 164 158 154 154 157 163 167 172 178 183 187 189 188 182 168 155 145 137 128 121 115 112 108 106 103 102 100
174 175 175 172 170 168 168 167 168 168 168 168 167 166 164 161 159 157 157 157 156 154 153 152 151 150 150 150 150 150 151 153 155 156 157 159 162 166 167 167 163 158 152 149 149 152 156 159 163 167 171 175 174 170 162 154 145 138 132 127 121 117 113 110 107 104 102 99 95
172 173 173 171 168 167 166 167 167 167 167 166 165 163 161 159 156 155 155 155 155 153 151 151 151 150 150 150 150 150 152 154 157 158 160 161 164 166 166 162 156 150 146 145 146 149 150 152 153 154 156 155 150 143 138 136 133 131 127 123 119 115 111 106 103 99 95 90 85
168 169 170 169 167 166 165 166 167 166 166 164 162 160 158 156 155 154 154 154 154 153 151 151 151 150 150 150 151 151 153 156 159 161 161 160 160 161 160 156 150 145 142 140 140 141 142 142 142 141 141 139 133 129 127 127 128 128 124 121 116 112 106 101 96 91 87 82 76
165 166 166 166 165 165 165 165 165 165 164 161 159 157 156 155 154 153 153 153 152 152 152 151 151 150 151 151 152 152 153 155 158 160 159 157 154 154 154 151 144 139 135 133 133 133 134 134 134 134 133 131 128 126 125 125 126 124 121 117 112 106 101 95 90 85 80 75 70
162 162 163 163 164 164 164 164 163 162 161 159 157 156 155 155 154 153 152 152 152 152 152 152 151 151 151 152 153 153 153 153 155 156 155 151 149 148 146 144 137 132 129 128 129 130 131 132 131 130 128 126 124 124 123 124 123 119 115 111 106 101 96 91 86 81 77 72 67